This demonstration page uses our WeatherBlox Daily Observations layout. Learn more.

Left ArrowRight Arrow

44.8408, -93.29828

Hourly Observations for August 14, 2019

Temp ( °F °C ) Dew Point ( °F °C ) Humidity (%) Winds ( mph kmh ) Pressure ( in mb ) Visibility ( mi km ) Precip ( " mm )
12:35 am 00:35 Cloudy with Light Rain 66 18.9 63 17.2 90 90 NE 9 15 29.94 1014 10 16 0.00 0.00
12:53 am 00:53 Cloudy 66 18.9 62 16.7 87 87 NE 9 15 29.95 1014 10 16 0.00 0.00
1:53 am 01:53 Cloudy 65 18.3 62 16.7 90 90 NE 9 15 29.96 1015 10 16 0.00 0.00
2:43 am 02:43 Cloudy 64 17.8 61 16.1 90 90 NE 9 15 29.95 1014 10 16 0.00 0.00
2:53 am 02:53 Cloudy 64 17.8 60 15.6 87 87 ENE 10 17 29.96 1014 10 16 0.00 0.00
3:00 am 03:00 Cloudy 64 17.8 60 15.6 87 87 ENE 9 15 29.96 1014 10 16 0.00 0.00
3:45 am 03:45 Cloudy with Light Rain 64 17.8 61 16.1 90 90 NNE 7 11 29.97 1015 10 16 0.00 0.00
3:53 am 03:53 Cloudy with Light Rain 64 17.8 61 16.1 90 90 NNE 10 17 29.97 1015 9 14 0.00 0.00
4:08 am 04:08 Cloudy with Light Rain 64 17.8 61 16.1 90 90 N 8 13 29.98 1015 10 16 0.00 0.00
4:16 am 04:16 Cloudy 64 17.8 61 16.1 90 90 NNE 9 15 29.98 1015 10 16 0.00 0.00
4:33 am 04:33 Cloudy 64 17.8 61 16.1 90 90 NNE 10 17 29.98 1015 10 16 0.00 0.00
4:53 am 04:53 Cloudy 64 17.8 60 15.6 87 87 NNE 9 15 29.99 1016 10 16 0.00 0.00
5:29 am 05:29 Cloudy 64 17.8 60 15.6 87 87 NNE 9 15 30.00 1016 10 16 0.00 0.00
5:53 am 05:53 Cloudy 63 17.2 59 15 87 87 NE 7 11 30.01 1016 10 16 0.00 0.00
6:28 am 06:28 Cloudy 64 17.8 59 15 84 84 NE 7 11 30.01 1016 10 16 0.00 0.00
6:45 am 06:45 Cloudy 63 17.2 59 15 87 87 NNE 8 13 30.02 1016 10 16 0.00 0.00
6:53 am 06:53 Cloudy 63 17.2 59 15 87 87 NE 7 11 30.03 1017 10 16 0.00 0.00
7:31 am 07:31 Cloudy 64 17.8 59 15 84 84 NNE 10 17 30.02 1017 10 16 0.00 0.00
7:53 am 07:53 Cloudy 64 17.8 59 15 84 84 NE 6 9 30.04 1017 10 16 0.00 0.00
8:53 am 08:53 Mostly Cloudy 65 18.3 58 14.4 78 78 NE 8 13 30.04 1017 10 16 0.00 0.00
9:53 am 09:53 Partly Cloudy 67 19.4 58 14.4 73 73 ENE 8 13 30.06 1018 10 16 0.00 0.00
10:53 am 10:53 Mostly Sunny 71 21.7 57 13.9 61 61 ENE 9 15 30.05 1018 10 16 0.00 0.00
11:53 am 11:53 Mostly Sunny 74 23.3 56 13.3 54 54 NNE 8 13 30.05 1018 10 16 0.00 0.00
12:53 pm 12:53 Partly Cloudy 75 23.9 55 12.8 50 50 ENE 8 13 30.06 1018 10 16 0.00 0.00
1:53 pm 13:53 Partly Cloudy 75 23.9 55 12.8 50 50 NE 8 13 30.06 1018 10 16 0.00 0.00
2:53 pm 14:53 Mostly Sunny 77 25 55 12.8 47 47 VRB 7 11 30.05 1018 10 16 0.00 0.00
3:53 pm 15:53 Partly Cloudy 77 25 53 11.7 43 43 E 9 15 30.03 1017 10 16 0.00 0.00
4:53 pm 16:53 Mostly Sunny 77 25 49 9.4 37 37 N 8 13 30.03 1017 10 16 0.00 0.00
5:05 pm 17:05 Mostly Sunny 77 25 50 10 39 39 ENE 8 13 30.00 1016 10 16 0.00 0.00
5:53 pm 17:53 Mostly Sunny 76 24.4 51 10.6 42 42 ENE 8 13 30.03 1017 10 16 0.00 0.00
6:53 pm 18:53 Mostly Sunny 75 23.9 50 10 41 41 ENE 6 9 30.03 1017 10 16 0.00 0.00
7:53 pm 19:53 Mostly Sunny 73 22.8 50 10 44 44 E 8 13 30.02 1017 10 16 0.00 0.00
8:53 pm 20:53 Mostly Clear 71 21.7 51 10.6 49 49 NE 5 7 30.04 1017 10 16 0.00 0.00
9:53 pm 21:53 Mostly Cloudy 72 22.2 51 10.6 48 48 ENE 3 6 30.06 1018 10 16 0.00 0.00
10:53 pm 22:53 Mostly Cloudy 70 21.1 53 11.7 55 55 SSE 3 6 30.06 1018 10 16 0.00 0.00
11:53 pm 23:53 Mostly Cloudy 69 20.6 55 12.8 61 61 Calm 30.05 1018 10 16 0.00 0.00

Powered by AerisWeather